| time (UTC) | temp C | wind direction | speed KPH | gust KPH | rain 1hr cm | rain 24hr cm | rain mn cm | humidity % | barometer mb |
| 20260504235534 | 12 | 132 | 9.7 | 37.0 | 0.00 | 0.00 | 0.00 | 76 | 1010.8 |
| 20260504235034 | 12 | 121 | 9.7 | 37.0 | 0.00 | 0.00 | 0.00 | 76 | 1010.7 |
| 20260504234545 | 12 | 173 | 9.7 | 27.4 | 0.00 | 0.00 | 0.00 | 76 | 1010.6 |
| 20260504234034 | -51 | 133 | 9.7 | 27.4 | 0.00 | 0.00 | 0.00 | 76 | 1010.7 |
| 20260504233534 | 12 | 192 | 9.7 | 27.4 | 0.00 | 0.00 | 0.00 | 77 | 1010.6 |
| 20260504233040 | 12 | 191 | 11.3 | 27.4 | 0.00 | 0.00 | 0.00 | 77 | 1010.6 |
| 20260504232534 | 12 | 180 | 8.0 | 32.2 | 0.00 | 0.00 | 0.00 | 77 | 1010.6 |
| 20260504232033 | 12 | 184 | 9.7 | 32.2 | 0.00 | 0.00 | 0.00 | 78 | 1010.6 |
| 20260504231539 | 13 | 227 | 11.3 | 30.6 | 0.00 | 0.00 | 0.00 | 78 | 1010.5 |
| 20260504231033 | 13 | 187 | 12.9 | 30.6 | 0.00 | 0.00 | 0.00 | 77 | 1010.5 |
| 20260504230533 | 13 | 197 | 12.9 | 40.2 | 0.00 | 0.00 | 0.00 | 77 | 1010.4 |
| 20260504230039 | 13 | 211 | 14.5 | 40.2 | 0.00 | 0.00 | 0.00 | 77 | 1010.5 |
| 20260504225535 | -48 | 177 | 11.3 | 33.8 | 0.00 | 0.00 | 0.00 | 76 | 1010.4 |
| 20260504225034 | 13 | 180 | 11.3 | 33.8 | 0.00 | 0.00 | 0.00 | 75 | 1010.6 |
| 20260504224545 | 13 | 175 | 12.9 | 27.4 | 0.00 | 0.00 | 0.00 | 75 | 1010.6 |
| 20260504224034 | -47 | 157 | 11.3 | 32.2 | 0.00 | 0.00 | 0.00 | 100 | 1010.7 |
| 20260504223534 | -47 | 244 | 12.9 | 33.8 | 0.00 | 0.00 | 0.00 | 1010.6 | |
| 20260504223058 | -47 | 188 | 11.3 | 35.4 | 0.00 | 0.00 | 0.00 | 1010.6 | |
| 20260504222535 | -47 | 188 | 11.3 | 38.6 | 0.00 | 0.00 | 0.00 | 1010.7 | |
| 20260504222034 | -47 | 189 | 9.7 | 38.6 | 0.00 | 0.00 | 0.00 | 100 | 1010.6 |
| 20260504221542 | -47 | 188 | 8.0 | 40.2 | 0.00 | 0.00 | 0.00 | 1010.6 | |
| 20260504221034 | 70 | 189 | 14.5 | 40.2 | 0.00 | 0.00 | 0.00 | 1010.6 | |
| 20260504220534 | -46 | 174 | 11.3 | 33.8 | 0.00 | 0.00 | 0.00 | 1010.7 | |
| 20260504220042 | -46 | 152 | 9.7 | 40.2 | 0.00 | 0.00 | 0.00 | 1010.7 | |
| 20260504215531 | -46 | 161 | 12.9 | 40.2 | 0.00 | 0.00 | 0.00 | 1010.7 | |
| 20260504215034 | -45 | 212 | 11.3 | 30.6 | 0.00 | 0.00 | 0.00 | 1010.7 | |
| 20260504214539 | -45 | 207 | 11.3 | 35.4 | 0.00 | 0.00 | 0.00 | 1010.7 | |
| 20260504214033 | -45 | 194 | 11.3 | 40.2 | 0.00 | 0.00 | 0.00 | 1010.7 | |
| 20260504213530 | -45 | 181 | 12.9 | 40.2 | 0.00 | 0.00 | 0.00 | 100 | 1010.7 |
| 20260504213046 | -45 | 218 | 12.9 | 32.2 | 0.00 | 0.00 | 0.00 | 1010.8 | |
| 20260504212531 | -45 | 171 | 12.9 | 37.0 | 0.00 | 0.00 | 0.00 | 1010.8 | |
| 20260504212031 | -45 | 205 | 14.5 | 37.0 | 0.00 | 0.00 | 0.00 | 1010.7 | |
| 20260504211624 | -45 | 207 | 12.9 | 29.0 | 0.00 | 0.00 | 0.00 | 1010.8 | |
| 20260504211031 | -45 | 148 | 8.0 | 27.4 | 0.00 | 0.00 | 0.00 | 1010.7 | |
| 20260504210534 | -45 | 199 | 11.3 | 32.2 | 0.00 | 0.00 | 0.00 | 1010.8 | |
| 20260504210045 | -45 | 139 | 12.9 | 32.2 | 0.00 | 0.00 | 0.00 | 1010.8 | |
| 20260504205534 | -45 | 211 | 11.3 | 29.0 | 0.00 | 0.00 | 0.00 | 1010.7 | |
| 20260504205032 | -45 | 198 | 11.3 | 29.0 | 0.00 | 0.00 | 0.00 | 1010.7 | |
| 20260504204542 | -45 | 158 | 11.3 | 30.6 | 0.00 | 0.00 | 0.00 | 1010.8 | |
| 20260504204031 | -45 | 209 | 9.7 | 30.6 | 0.00 | 0.00 | 0.00 | 1010.7 | |
| 20260504203531 | -45 | 187 | 9.7 | 32.2 | 0.00 | 0.00 | 0.00 | 1010.6 | |
| 20260504203042 | -45 | 182 | 9.7 | 32.2 | 0.00 | 0.00 | 0.00 | 1010.6 | |
| 20260504202534 | -45 | 179 | 12.9 | 43.5 | 0.00 | 0.00 | 0.00 | 1010.5 | |
| 20260504202033 | -45 | 184 | 12.9 | 43.5 | 0.00 | 0.00 | 0.00 | 1010.6 | |
| 20260504201552 | -45 | 207 | 16.1 | 32.2 | 0.00 | 0.00 | 0.00 | 1010.7 | |
| 20260504201030 | -44 | 180 | 11.3 | 30.6 | 0.00 | 0.00 | 0.00 | 56 | 1010.7 |
| 20260504200530 | 17 | 193 | 11.3 | 30.6 | 0.00 | 0.00 | 0.00 | 56 | 1010.6 |
| 20260504200043 | 18 | 175 | 9.7 | 30.6 | 0.00 | 0.00 | 0.00 | 54 | 1010.8 |
| 20260504195533 | 18 | 200 | 11.3 | 29.0 | 0.00 | 0.00 | 0.00 | 53 | 1010.7 |
| 20260504195030 | 18 | 223 | 11.3 | 30.6 | 0.00 | 0.00 | 0.00 | 53 | 1010.7 |
| 20260504194549 | 18 | 184 | 12.9 | 40.2 | 0.00 | 0.00 | 0.00 | 53 | 1010.8 |
| 20260504194034 | 18 | 200 | 11.3 | 40.2 | 0.00 | 0.00 | 0.00 | 53 | 1010.9 |
| 20260504193534 | 18 | 221 | 11.3 | 33.8 | 0.00 | 0.00 | 0.00 | 54 | 1010.9 |
| 20260504193051 | -44 | 246 | 16.1 | 33.8 | 0.00 | 0.00 | 0.00 | 1010.9 | |
| 20260504192533 | 18 | 228 | 16.1 | 33.8 | 0.00 | 0.00 | 0.00 | 53 | 1010.8 |
| 20260504192033 | -43 | 196 | 14.5 | 35.4 | 0.00 | 0.00 | 0.00 | 1010.9 | |
| 20260504191542 | 18 | 189 | 14.5 | 35.4 | 0.00 | 0.00 | 0.00 | 1010.8 | |
| 20260504191034 | 18 | 217 | 16.1 | 35.4 | 0.00 | 0.00 | 0.00 | 53 | 1010.9 |
| 20260504190531 | 18 | 198 | 11.3 | 33.8 | 0.00 | 0.00 | 0.00 | 52 | 1010.8 |
| 20260504190054 | 18 | 186 | 9.7 | 27.4 | 0.00 | 0.00 | 0.00 | 52 | 1011.0 |
| 20260504185532 | 70 | 183 | 6.4 | 33.8 | 0.00 | 0.00 | 0.00 | 52 | 1011.1 |
| 20260504185030 | 18 | 193 | 11.3 | 35.4 | 0.00 | 0.00 | 0.00 | 51 | 1011.1 |
| 20260504184547 | 18 | 202 | 12.9 | 41.8 | 0.00 | 0.00 | 0.00 | 52 | 1011.1 |
| 20260504184036 | 18 | 189 | 11.3 | 41.8 | 0.00 | 0.00 | 0.00 | 52 | 1011.1 |
| 20260504183534 | 18 | 196 | 8.0 | 27.4 | 0.00 | 0.00 | 0.00 | 51 | 1011.3 |
| 20260504183045 | 18 | 180 | 9.7 | 22.5 | 0.00 | 0.00 | 0.00 | 51 | 1011.3 |
| 20260504182530 | 18 | 198 | 9.7 | 22.5 | 0.00 | 0.00 | 0.00 | 51 | 1011.2 |
| 20260504182031 | 18 | 200 | 11.3 | 40.2 | 0.00 | 0.00 | 0.00 | 50 | 1011.3 |
| 20260504181539 | 18 | 210 | 11.3 | 40.2 | 0.00 | 0.00 | 0.00 | 51 | 1011.3 |
| 20260504181034 | 18 | 200 | 12.9 | 40.2 | 0.00 | 0.00 | 0.00 | 50 | 1011.2 |
| 20260504180534 | 18 | 191 | 16.1 | 37.0 | 0.00 | 0.00 | 0.00 | 51 | 1011.3 |
| 20260504180039 | 18 | 158 | 9.7 | 41.8 | 0.00 | 0.00 | 0.00 | 51 | 1011.3 |
| 20260504175533 | 18 | 202 | 14.5 | 41.8 | 0.00 | 0.00 | 0.00 | 51 | 1011.3 |
| 20260504175033 | 18 | 214 | 12.9 | 48.3 | 0.00 | 0.00 | 0.00 | 51 | 1011.3 |
| 20260504174549 | 18 | 192 | 12.9 | 49.9 | 0.00 | 0.00 | 0.00 | 50 | 1011.4 |
| 20260504174034 | 18 | 186 | 16.1 | 49.9 | 0.00 | 0.00 | 0.00 | 49 | 1011.5 |
| 20260504173533 | 18 | 150 | 14.5 | 30.6 | 0.00 | 0.00 | 0.00 | 49 | 1011.4 |
| 20260504173054 | 18 | 237 | 11.3 | 30.6 | 0.00 | 0.00 | 0.00 | 49 | 1011.4 |
| 20260504172533 | 18 | 191 | 8.0 | 30.6 | 0.00 | 0.00 | 0.00 | 51 | 1011.4 |
| 20260504172035 | 18 | 199 | 9.7 | 30.6 | 0.00 | 0.00 | 0.00 | 48 | 1011.4 |
| 20260504171547 | 18 | 177 | 11.3 | 29.0 | 0.00 | 0.00 | 0.00 | 49 | 1011.4 |
| 20260504171031 | 18 | 209 | 9.7 | 30.6 | 0.00 | 0.00 | 0.00 | 48 | 1011.6 |
| 20260504170531 | 18 | 191 | 12.9 | 30.6 | 0.00 | 0.00 | 0.00 | 49 | 1011.5 |
| 20260504151035 | 13 | 267 | 16.1 | 27.4 | 0.00 | 0.00 | 0.00 | 66 | 1013.1 |
| 20260504150533 | 15 | 290 | 17.7 | 35.4 | 0.00 | 0.00 | 0.00 | 62 | 1013.0 |
| 20260504141033 | -45 | 217 | 16.1 | 29.0 | 0.00 | 0.00 | 0.00 | 1013.3 | |
| 20260504140533 | -45 | 263 | 12.9 | 29.0 | 0.00 | 0.00 | 0.00 | 1013.3 | |
| 20260504130534 | -45 | 264 | 11.3 | 24.1 | 0.00 | 0.00 | 0.00 | 1013.5 | |
| 20260504110531 | -54 | 230 | 4.8 | 20.9 | 0.00 | 0.00 | 0.00 | 1013.4 | |
| 20260504100530 | -56 | 226 | 6.4 | 19.3 | 0.00 | 0.00 | 0.00 | 1013.2 | |
| 20260504081545 | 11 | 227 | 9.7 | 19.3 | 0.00 | 0.00 | 0.00 | 63 | 1012.8 |
| 20260504081032 | 11 | 226 | 6.4 | 19.3 | 0.00 | 0.00 | 0.00 | 63 | 1012.8 |
| 20260504080532 | 11 | 238 | 8.0 | 19.3 | 0.00 | 0.00 | 0.00 | 63 | 1012.9 |
| 20260504050531 | -57 | 301 | 3.2 | 11.3 | 0.00 | 0.00 | 0.00 | 1012.2 | |
| 20260504045530 | -57 | 301 | 3.2 | 12.9 | 0.00 | 0.00 | 0.00 | 1012.2 | |
| 20260504045032 | -57 | 301 | 3.2 | 14.5 | 0.00 | 0.00 | 0.00 | 1012.3 | |
| 20260504044534 | 9 | 301 | 3.2 | 14.5 | 0.00 | 0.00 | 0.00 | 55 | 1012.3 |
| 20260504044030 | 9 | 302 | 4.8 | 14.5 | 0.00 | 0.00 | 0.00 | 55 | 1012.4 |
| 20260504043535 | 10 | 304 | 4.8 | 14.5 | 0.00 | 0.00 | 0.00 | 100 | 1012.3 |
| 20260504043041 | -56 | 306 | 3.2 | 12.9 | 0.00 | 0.00 | 0.00 | 1012.3 | |
| 20260504042536 | -56 | 306 | 3.2 | 12.9 | 0.00 | 0.00 | 0.00 | 1012.2 | |
| 20260504042033 | -56 | 306 | 3.2 | 9.7 | 0.00 | 0.00 | 0.00 | 1012.2 | |
| 20260504041538 | -56 | 306 | 4.8 | 11.3 | 0.00 | 0.00 | 0.00 | 1012.2 | |
| 20260504041032 | -57 | 306 | 3.2 | 11.3 | 0.00 | 0.00 | 0.00 | 1012.1 | |
| 20260504040531 | -57 | 306 | 3.2 | 8.0 | 0.00 | 0.00 | 0.00 | 1012.1 | |
| 20260504040056 | -56 | 306 | 1.6 | 8.0 | 0.00 | 0.00 | 0.00 | 1012.0 | |
| 20260504035533 | -56 | 306 | 3.2 | 9.7 | 0.00 | 0.00 | 0.00 | 1012.0 | |
| 20260504035032 | -56 | 306 | 3.2 | 11.3 | 0.00 | 0.00 | 0.00 | 1012.0 | |
| 20260504034540 | -56 | 0 | 4.8 | 12.9 | 0.00 | 0.00 | 0.00 | 1011.9 | |
| 20260504034034 | -56 | 306 | 3.2 | 12.9 | 0.00 | 0.00 | 0.00 | 1011.9 | |
| 20260504033531 | -56 | 306 | 4.8 | 12.9 | 0.00 | 0.00 | 0.00 | 1011.9 | |
| 20260504033038 | -56 | 306 | 3.2 | 11.3 | 0.00 | 0.00 | 0.00 | 1011.9 | |
| 20260504032530 | -56 | 306 | 1.6 | 11.3 | 0.00 | 0.00 | 0.00 | 1011.9 | |
| 20260504032030 | -56 | 306 | 3.2 | 12.9 | 0.00 | 0.00 | 0.00 | 1011.9 | |
| 20260504031551 | 9 | 306 | 3.2 | 12.9 | 0.00 | 0.00 | 0.00 | 59 | 1011.9 |
| 20260504031034 | 9 | 306 | 4.8 | 12.9 | 0.00 | 0.00 | 0.00 | 60 | 1012.0 |
| 20260504030529 | 9 | 306 | 4.8 | 12.9 | 0.00 | 0.00 | 0.00 | 1011.9 | |
| 20260504030042 | -57 | 306 | 3.2 | 12.9 | 0.00 | 0.00 | 0.00 | 1011.9 | |
| 20260504025533 | -57 | 306 | 3.2 | 9.7 | 0.00 | 0.00 | 0.00 | 1011.8 | |
| 20260504025032 | -57 | 0 | 3.2 | 11.3 | 0.00 | 0.00 | 0.00 | 1011.9 | |
| 20260504024539 | -57 | 307 | 3.2 | 11.3 | 0.00 | 0.00 | 0.00 | 1011.8 | |
| 20260504024030 | -57 | 307 | 3.2 | 8.0 | 0.00 | 0.00 | 0.00 | 100 | 1011.8 |
| 20260504023532 | -57 | 307 | 3.2 | 8.0 | 0.00 | 0.00 | 0.00 | 1011.9 | |
| 20260504023039 | -57 | 307 | 3.2 | 12.9 | 0.00 | 0.00 | 0.00 | 1011.8 | |
| 20260504022533 | -57 | 307 | 3.2 | 12.9 | 0.00 | 0.00 | 0.00 | 1011.8 | |
| 20260504022030 | 9 | 307 | 4.8 | 12.9 | 0.00 | 0.00 | 0.00 | 1011.9 | |
| 20260504021539 | -57 | 307 | 4.8 | 11.3 | 0.00 | 0.00 | 0.00 | 1011.7 | |
| 20260504021030 | -57 | 307 | 1.6 | 11.3 | 0.00 | 0.00 | 0.00 | 100 | 1011.8 |
| 20260504020529 | 9 | 0 | 4.8 | 12.9 | 0.00 | 0.00 | 0.00 | 62 | 1011.8 |
| 20260504020038 | 9 | 307 | 4.8 | 12.9 | 0.00 | 0.00 | 0.00 | 62 | 1011.8 |
| 20260504015534 | -57 | 308 | 4.8 | 14.5 | 0.00 | 0.00 | 0.00 | 62 | 1011.8 |
| 20260504015030 | 9 | 308 | 3.2 | 14.5 | 0.00 | 0.00 | 0.00 | 63 | 1011.7 |
| 20260504014541 | 9 | 309 | 6.4 | 14.5 | 0.00 | 0.00 | 0.00 | 63 | 1011.7 |
| 20260504014031 | 9 | 311 | 4.8 | 9.7 | 0.00 | 0.00 | 0.00 | 64 | 1011.6 |
| 20260504013530 | 9 | 311 | 4.8 | 12.9 | 0.00 | 0.00 | 0.00 | 65 | 1011.5 |
| 20260504013046 | 8 | 312 | 4.8 | 12.9 | 0.00 | 0.00 | 0.00 | 66 | 1011.4 |
| 20260504012530 | 8 | 313 | 4.8 | 12.9 | 0.00 | 0.00 | 0.00 | 66 | 1011.4 |
| 20260504012030 | 8 | 313 | 4.8 | 12.9 | 0.00 | 0.00 | 0.00 | 68 | 1011.4 |
| 20260504011541 | 8 | 313 | 3.2 | 9.7 | 0.00 | 0.00 | 0.00 | 70 | 1011.3 |
| 20260504011031 | 8 | 313 | 3.2 | 9.7 | 0.00 | 0.00 | 0.00 | 71 | 1011.1 |
| 20260504010532 | 8 | 313 | 3.2 | 9.7 | 0.00 | 0.00 | 0.00 | 71 | 1011.1 |
| 20260504010040 | 8 | 313 | 3.2 | 9.7 | 0.00 | 0.00 | 0.00 | 71 | 1011.0 |
| 20260504005532 | 8 | 313 | 4.8 | 9.7 | 0.00 | 0.00 | 0.00 | 74 | 1011.1 |
| 20260504005031 | 7 | 313 | 3.2 | 9.7 | 0.00 | 0.00 | 0.00 | 76 | 1011.0 |
| 20260504004540 | 7 | 313 | 3.2 | 9.7 | 0.00 | 0.00 | 0.00 | 77 | 1011.0 |
| 20260504004031 | 7 | 313 | 4.8 | 9.7 | 0.00 | 0.00 | 0.00 | 78 | 1011.1 |
| 20260504003533 | 7 | 315 | 1.6 | 8.0 | 0.00 | 0.00 | 0.00 | 78 | 1011.0 |
| 20260504003038 | 7 | 315 | 1.6 | 8.0 | 0.00 | 0.00 | 0.00 | 78 | 1010.9 |
| 20260504002534 | 7 | 315 | 1.6 | 4.8 | 0.00 | 0.00 | 0.00 | 77 | 1010.7 |
| 20260504002030 | 7 | 315 | 0.0 | 4.8 | 0.00 | 0.00 | 0.00 | 77 | 1010.7 |
| 20260504001550 | 8 | 315 | 1.6 | 4.8 | 0.00 | 0.00 | 0.00 | 77 | 1010.7 |
| 20260504001030 | 8 | 0 | 0.0 | 0.0 | 0.00 | 0.00 | 0.00 | 76 | 1010.6 |
| 20260504000530 | 8 | 0 | 0.0 | 1.6 | 0.00 | 0.00 | 0.00 | 75 | 1010.6 |
| 20260504000042 | 9 | 0 | 0.0 | 1.6 | 0.00 | 0.00 | 0.00 | 75 | 1010.6 |